ONEWEB-0010, 44058

Orbit data source: Space-Track

ONEWEB-0010, 44058 is a payload satellite owned by One Web (UK) in LEO that was launched on Wed, 27 Feb 2019 UTC via a SOYUZ-ST-B launch vehicle from the French Guiana (FRGUI). Payloads include a variety of satellites, spacecraft, and rockets equipped with specific instruments for various scientific and technological missions. These include communications satellites like Starlink; space stations such as the ISS; scientific satellites like the Hubble; Earth observation satellites from companies like Planet Labs, Umbra, and HawkEye 360; GPS; miniature CubeSats for education and research; and military/defense satellites.

Loading next visibility...
ONEWEB-0010 details
Identifier
44058, 2019-010B
Orbit
LEO
Last TLE update20 hours ago
Origin
Flag of UKOne Web (UK)
ManufacturerAirbus/Toulouse
MissionOperational Commercial Communications
Bus & MotorARROW, Unknown motor
Mass148 kg wet, ~140 kg dry
Launch date (UTC)
2019-02-27 (6 years ago)
Launch vehicle
SOYUZ-ST-B
Launch site
French Guiana (FRGUI)
Object type
Payload
Rocket body
Debris
Shape & HBRTrap Box + 2 Pan, 5 m
Radar Cross Section2.957 m², Large (>1 m²)

Expand to show TLE details & history

TLE from 20 hours ago
0 ONEWEB-0010
1 44058U 19010B   25014.37126731 -.00000007  00000-0 -50970-4 0  9998
2 44058  87.9114 332.1608 0001803  98.4703 261.6632 13.16593351283342
Epoch: 2025-01-14T08:54Z
Definitive object data (Epoch: 2025-01-14T08:54:37.495Z)
Latitude-0.00006°
Longitude84.42565°
Altitude1,200.855 km
Speed7.253 km/s
True Right ascension22h 08m 38s
True Declination0° 00' 00"
Sunlit
Object was in daylight at TLE epoch
Visualization TLE readout
Latitude-70.25105°
Longitude-89.93503°
Altitude1,225.284 km
Speed7.241 km/s
Apparent Right ascension15h 06m 35s
Apparent Declination-65° 06' 35"
Sunlit
Object is in daylight
Visualization observer readout
Local Sidereal Time05:04:02
Azimuth155.854° SSE
Elevation-59.701°
Doppler factor1
Orbital elements
Apogee altitude1,196.236 km
Perigee altitude1,193.505 km
Semi-major axis7,573.008 km
Eccentricity0.0001803
Inclination87.9114°
RAAN332.1608°
Arg. of periapsis98.4703°
True anomaly261.64276°
Mean anomaly261.6632°
Eccentric anomaly261.65298°
Mean motion3.29337 °/min
BSTAR-0.00005097
Orbital period109.31 mins
Loading maneuver chart data...
Loading historical data...
Loading historical data...
Loading historical data...
Loading historical data...
Loading historical data...
Loading historical data...
Loading historical data...

ONEWEB-0010 Visibility forecast

Observer location: undefined°, undefined

Span
Click to sort rows by Start time (UTC) header in descending order
Start Az.
Max El. time (UTC)
Max El. Az.
Max El.
End time (UTC)
End Az.
6 mins2025-01-15 07:26:00.017Z42.91° NE2025-01-15 07:29:00.017Z68.361° E13.946°2025-01-15 07:32:00.017Z94.849° ESE
13 mins2025-01-15 09:14:00.017Z0.034° NNE2025-01-15 09:20:00.017Z159.649° S44.929°2025-01-15 09:27:00.017Z180.882° SSW
5 mins2025-01-15 11:06:00.017Z308.515° NW2025-01-15 11:08:00.017Z290.505° WNW14.672°2025-01-15 11:11:00.017Z263.812° W
5 mins2025-01-15 19:45:00.017Z90.439° ESE2025-01-15 19:47:00.017Z71.989° E15.15°2025-01-15 19:50:00.017Z45.286° ENE
12 mins2025-01-15 21:30:00.017Z180.797° SSW2025-01-15 21:35:00.017Z200.581° SSW44.574°2025-01-15 21:42:00.017Z359.636° N
5 mins2025-01-15 23:24:00.017Z271.499° WNW2025-01-15 23:26:00.017Z289.198° WNW13.544°2025-01-15 23:29:00.017Z314.814° NW
|